Theta_e
313 308 307 309 312 313 314 316 317 315 315 314 315 313 311 312 312 315 316 329 332 328 326 328 328 328 330 333 336 338 339 339 340 340 341 342 343 343 343 342 342 343 342 346 347 347 348 347 350 348 350 349 350 352 354 355 355 357 356 358 357 358 360 359 357 356 355 355 356 356 353 352 355 361 362 362 363 363 362 367 369 369 367 367 367 367
310 306 308 312 315 316 316 318 316 314 315 314 314 313 311 312 309 311 311 318 328 326 323 325 326 326 329 332 334 337 337 335 337 338 339 341 342 343 344 344 344 345 345 346 346 347 348 348 349 349 350 351 349 353 354 355 355 357 356 357 358 359 360 359 357 357 356 358 356 355 354 352 354 358 359 358 361 360 362 369 370 370 368 369 368 367
303 303 309 315 319 319 317 317 316 315 313 314 313 313 312 312 311 313 312 314 322 324 319 319 319 320 323 328 333 334 335 337 338 339 339 338 340 341 342 344 345 345 344 345 346 348 348 348 349 349 350 351 351 353 354 356 355 357 356 359 361 359 360 360 360 359 357 359 360 357 356 354 355 360 362 359 361 363 363 366 369 369 369 369 367 366
300 304 312 318 318 316 315 315 315 314 314 313 313 312 310 313 309 306 313 316 319 321 317 318 315 318 321 326 330 333 334 336 338 339 339 340 340 342 341 343 344 344 345 344 345 345 346 348 349 349 350 351 350 352 352 354 354 356 357 360 361 361 361 362 362 361 361 361 363 362 363 362 362 359 361 365 365 364 364 364 366 369 370 369 368 365
303 308 318 318 316 315 313 314 314 314 312 314 314 313 312 310 311 311 308 312 312 315 316 316 312 313 316 318 320 329 333 333 336 338 340 344 346 346 345 343 345 344 345 345 345 345 346 347 347 349 351 351 350 351 352 352 352 352 356 361 363 362 362 363 363 363 363 363 364 363 364 363 363 363 361 359 358 361 363 362 364 366 368 367 365 366
308 315 318 316 314 313 313 311 313 314 311 312 314 314 313 312 311 310 310 309 308 309 314 312 306 308 315 316 318 326 328 329 335 336 337 341 344 344 342 342 344 345 347 347 345 346 346 347 348 350 351 350 350 352 354 354 353 354 357 362 364 363 363 362 365 366 364 363 360 357 356 354 355 355 355 355 354 355 357 355 359 364 364 364 366 367
312 316 315 313 312 311 312 311 312 314 311 309 311 316 314 313 312 311 309 309 306 305 310 313 306 304 314 318 323 326 328 329 333 334 335 340 342 343 343 343 343 343 344 347 347 347 346 347 348 349 351 350 349 352 354 355 355 356 358 362 364 364 364 364 366 367 365 363 359 359 356 355 355 354 355 359 358 357 356 361 361 364 363 366 363 365
313 313 313 314 312 311 310 308 313 313 310 308 314 315 315 313 311 311 311 310 309 310 309 311 311 308 307 316 323 326 327 330 332 333 334 335 340 340 343 343 344 343 344 345 347 347 347 348 348 349 350 350 349 352 354 355 356 359 361 363 364 364 364 365 367 367 365 362 360 360 358 357 356 354 356 361 361 362 361 361 362 364 362 366 365 364
312 310 311 311 312 311 310 312 314 313 309 310 313 312 311 312 312 312 311 310 310 308 305 309 313 307 308 316 324 325 323 324 326 328 333 337 339 341 342 342 343 344 344 344 345 346 347 348 349 350 351 351 351 351 353 355 357 360 363 364 366 364 365 365 368 367 366 363 362 360 358 358 358 358 357 361 362 361 363 361 363 366 365 367 367 367
311 310 313 312 310 309 312 315 315 314 309 312 312 313 312 312 312 312 310 310 308 305 302 307 311 305 307 315 318 322 323 322 325 328 330 334 338 341 341 343 343 344 345 345 345 347 348 349 350 351 352 352 351 351 354 356 357 360 363 365 366 364 365 366 368 367 367 364 363 361 359 360 359 359 359 359 358 361 364 361 363 364 365 365 366 367
307 311 313 310 310 305 309 311 312 313 313 314 312 309 309 309 310 311 311 310 307 301 304 308 311 309 304 311 316 318 318 323 325 329 330 332 334 339 343 344 344 343 343 343 344 344 348 350 351 351 351 352 352 352 354 355 356 358 362 365 365 365 365 366 367 367 366 364 363 361 361 361 362 361 360 358 360 362 363 361 361 362 364 365 365 364
306 307 307 305 307 307 308 307 310 313 313 311 308 307 306 306 309 308 307 309 301 299 306 309 308 309 301 310 319 322 325 326 326 326 328 330 332 335 339 342 344 344 344 345 345 346 347 349 350 351 351 352 353 352 353 354 356 358 361 364 365 366 366 366 366 367 364 362 362 362 362 362 363 364 359 360 358 360 361 360 359 361 361 363 362 364
301 303 304 304 307 306 306 306 306 309 311 309 308 307 301 299 300 297 302 297 298 299 307 308 307 305 309 315 319 322 324 326 328 328 329 330 332 333 336 340 344 345 345 345 346 346 346 346 347 348 350 352 353 352 354 353 354 357 360 364 364 366 366 366 366 366 365 364 363 361 361 363 364 364 363 362 360 361 360 359 359 361 360 361 362 362
299 303 303 303 305 306 306 302 302 302 307 306 305 304 300 297 295 292 297 301 301 304 306 306 308 305 314 316 321 321 323 326 327 330 330 332 333 335 335 339 339 344 346 345 345 344 346 347 348 349 350 351 352 353 352 354 355 357 358 363 364 365 367 366 366 365 365 364 364 364 362 362 363 363 364 361 359 359 361 361 360 358 356 358 359 358
293 294 299 301 300 305 305 303 304 304 306 306 309 306 302 303 297 293 297 294 297 301 304 308 303 304 305 312 321 323 326 326 328 330 333 334 335 336 337 338 340 342 346 347 347 346 346 348 349 348 349 350 352 352 352 354 355 357 358 361 363 364 366 367 365 365 364 363 364 364 363 362 363 362 362 361 359 360 360 359 359 361 356 353 356 355
297 297 299 303 302 305 302 305 306 305 306 308 309 309 304 303 307 299 301 300 300 301 300 303 304 310 311 320 323 327 326 326 327 328 330 331 333 335 335 335 337 339 341 343 346 346 347 349 350 349 349 350 351 354 353 354 355 355 358 362 363 364 365 366 366 364 364 365 364 365 365 363 363 363 362 362 363 362 362 363 360 361 363 358 355 360
298 295 300 301 304 304 304 305 305 305 298 304 305 301 305 309 307 304 304 304 304 302 300 307 307 312 317 319 320 323 323 324 326 326 327 329 330 333 332 334 336 337 340 342 342 345 349 348 349 350 351 350 351 352 352 355 356 357 358 360 362 364 365 365 366 365 366 365 365 365 364 363 362 362 361 358 361 358 361 363 362 359 359 360 362 359
298 295 300 301 299 304 306 305 305 306 306 306 300 305 309 310 308 305 298 301 299 296 299 304 302 305 306 304 318 319 320 321 323 324 325 327 328 329 330 333 334 335 338 341 343 346 347 349 350 350 350 351 351 352 353 355 356 357 358 360 361 362 363 363 364 363 364 365 364 365 365 365 363 360 359 358 359 360 359 361 362 361 358 359 358 359
302 294 298 300 301 303 306 305 304 306 307 304 303 309 303 299 298 304 303 294 294 294 299 301 304 305 306 308 313 315 316 318 321 323 324 324 325 327 329 331 333 335 337 339 341 343 345 347 348 351 350 351 352 353 354 353 354 356 358 359 359 360 361 361 361 363 363 364 363 363 364 364 363 360 360 358 359 361 359 357 358 359 357 358 361 362
302 296 295 301 301 302 304 304 299 302 306 307 308 306 308 306 303 300 302 304 302 295 298 299 303 301 309 311 313 314 317 319 320 321 322 323 324 325 328 329 330 332 335 338 339 342 344 345 347 349 350 350 351 351 351 352 353 353 356 357 357 359 361 362 361 362 362 363 362 362 364 365 365 364 361 360 359 359 359 359 356 357 355 357 358 360
301 303 294 298 302 301 298 301 298 300 300 303 303 302 304 305 307 306 306 304 301 298 299 299 296 302 308 314 315 316 317 319 320 320 322 323 324 326 327 327 328 330 333 337 339 342 345 346 346 348 350 351 351 352 352 351 352 353 353 354 355 356 357 358 359 360 362 363 362 363 364 363 364 362 361 359 359 360 360 359 359 356 356 358 358 359
302 300 296 297 298 298 296 300 299 299 300 301 302 302 302 302 300 298 297 305 303 300 297 298 296 301 309 316 316 317 319 320 321 322 321 323 324 326 326 326 326 327 330 335 339 342 344 347 350 348 350 351 350 350 350 350 351 352 351 351 353 353 355 356 357 360 362 363 362 362 362 363 363 363 362 359 358 360 359 358 358 358 359 355 359 359
304 303 300 296 297 297 298 300 302 301 301 301 302 300 302 303 304 301 294 299 302 303 304 305 298 299 312 317 317 318 319 320 321 322 321 322 324 325 327 326 326 327 327 330 335 340 343 346 347 349 349 353 351 351 350 350 349 350 351 351 352 352 353 355 356 358 362 362 362 362 362 362 362 363 361 359 357 357 355 356 357 358 358 355 354 359
305 300 296 295 298 299 301 302 302 301 301 301 302 302 302 300 301 300 301 305 301 302 300 302 300 298 311 318 318 319 321 321 322 322 322 322 323 325 326 326 326 326 326 328 331 336 339 342 346 347 349 350 350 355 351 351 351 350 350 350 350 351 352 353 355 356 360 361 360 361 362 362 361 360 360 358 357 356 356 354 355 358 356 355 352 353
298 300 300 294 294 295 296 300 299 301 302 299 299 300 301 302 302 302 304 308 302 302 301 300 296 298 308 317 318 318 319 319 319 321 322 321 322 324 326 327 326 326 326 325 327 330 334 337 341 344 347 348 348 350 351 354 350 350 350 351 350 350 351 352 355 355 357 359 359 359 360 360 360 359 359 358 356 356 355 354 353 356 356 355 352 351
300 300 299 293 290 287 288 289 292 294 297 299 299 298 299 299 300 302 299 303 296 304 306 301 299 304 311 315 315 316 318 318 320 320 322 322 322 322 325 326 325 325 325 325 326 327 328 332 335 341 345 347 347 348 350 350 353 350 351 352 352 351 352 351 353 354 355 357 357 359 360 360 359 358 358 358 356 356 355 355 354 354 356 356 353 352
300 300 301 298 297 295 296 297 297 300 299 296 295 296 297 299 300 302 303 302 298 303 302 301 304 304 306 310 312 314 315 315 316 319 319 320 322 323 326 326 325 325 325 324 325 327 329 330 331 335 339 343 346 347 347 347 351 353 355 352 352 353 352 353 353 354 352 354 355 358 360 358 358 358 357 358 357 356 356 355 354 354 354 356 354 352
300 297 297 298 298 298 297 296 297 298 297 296 295 295 296 297 298 300 300 298 303 302 296 301 306 305 306 309 311 313 314 316 316 318 319 320 321 322 323 325 325 324 325 325 325 325 325 327 329 332 335 338 340 345 347 347 346 352 355 354 352 352 351 351 352 353 353 354 355 358 358 359 359 358 359 359 361 359 357 356 355 356 356 357 356 353
298 295 296 296 295 296 297 296 297 297 296 296 295 295 295 296 297 298 298 298 302 300 298 300 305 307 307 309 311 312 314 315 316 317 319 320 320 321 323 322 322 322 323 324 325 326 326 325 327 329 332 334 337 338 342 344 346 349 352 355 357 351 352 353 352 353 353 354 354 357 360 361 361 360 360 360 361 360 358 357 358 358 358 359 357 355
300 296 296 296 294 295 295 296 296 295 295 295 295 295 296 295 296 297 297 298 299 301 302 304 306 306 308 309 311 313 315 315 316 321 320 320 319 321 320 320 320 320 321 322 324 326 327 326 326 327 330 332 335 336 337 339 342 345 346 348 352 357 357 353 353 353 353 353 356 358 359 362 363 362 362 361 361 363 361 359 359 357 357 357 358 359
300 295 296 295 295 293 294 295 297 295 294 294 294 295 295 295 296 296 297 297 299 300 302 305 306 305 310 313 313 315 316 316 317 318 319 320 319 319 320 319 320 320 321 322 324 325 327 327 327 326 327 329 332 335 335 337 339 342 342 345 350 354 355 354 353 352 353 355 357 359 361 362 362 362 362 363 362 364 363 361 360 360 360 359 359 359
299 298 297 295 293 292 293 294 293 295 294 293 293 294 294 294 294 295 296 299 299 301 302 304 303 305 309 313 313 314 314 314 313 315 318 319 319 319 319 319 320 321 321 322 322 324 325 326 327 327 326 327 330 333 335 335 337 339 341 344 347 351 356 355 354 353 354 355 357 359 361 361 363 362 362 363 363 364 365 363 362 361 361 359 358 360
299 296 293 294 291 292 294 293 293 292 293 290 291 294 296 296 299 299 300 300 303 306 301 298 300 309 311 311 311 312 312 314 313 314 316 318 320 319 319 319 320 320 321 323 323 323 323 325 327 328 327 328 328 331 333 335 335 336 339 343 346 350 352 354 355 356 357 355 355 358 361 363 362 362 362 363 363 364 365 364 362 361 360 358 359 359
299 298 296 298 291 293 293 293 294 292 286 288 298 300 299 296 296 296 297 301 305 303 305 309 309 311 310 310 310 310 311 312 315 316 318 318 318 319 318 319 320 321 322 322 323 323 324 325 327 328 330 330 329 330 331 333 333 334 337 342 345 348 351 351 354 357 357 358 357 357 359 362 361 361 362 363 363 363 363 362 362 361 360 359 361 360
297 298 297 297 293 292 294 293 291 285 287 297 301 302 301 301 299 298 301 302 305 305 307 306 308 308 310 310 311 312 314 314 316 317 315 317 318 318 318 317 318 320 321 322 323 324 326 326 327 329 329 329 330 331 331 331 331 333 336 340 341 344 346 348 350 352 355 357 358 357 357 360 361 360 361 362 362 362 361 361 362 361 360 358 358 359
298 297 298 295 296 296 293 291 283 285 295 299 300 302 305 303 302 300 298 301 305 306 307 306 308 308 309 310 311 313 314 314 314 317 317 316 318 318 317 316 317 318 319 321 322 323 326 326 326 327 329 331 331 331 332 332 332 333 335 339 341 342 341 340 343 345 347 352 356 358 357 357 358 360 361 361 362 361 360 360 362 361 361 359 357 358
301 300 298 295 298 289 292 291 290 297 295 296 296 299 300 299 300 298 294 300 306 308 307 306 307 307 307 308 310 311 312 312 312 314 317 316 316 317 317 317 318 318 319 321 321 323 325 327 327 329 330 330 329 329 331 332 333 333 335 338 339 342 342 339 338 339 342 345 347 352 357 357 356 358 360 361 360 361 360 361 360 361 362 360 358 355
304 299 300 295 294 296 292 289 290 290 286 293 299 304 307 307 307 305 298 301 308 308 308 307 307 307 307 307 308 309 309 307 305 310 316 316 315 315 316 317 318 319 319 320 322 322 325 325 327 328 329 329 330 331 333 332 332 332 335 337 338 341 341 339 337 337 338 340 342 344 349 356 359 357 358 360 360 360 360 361 362 361 363 360 358 356
303 303 302 296 295 295 291 288 287 285 290 301 302 304 305 307 305 307 297 293 306 308 306 308 306 307 307 307 308 308 306 301 302 309 313 314 314 314 313 314 316 317 318 319 319 320 321 323 326 327 328 329 327 330 331 332 332 331 333 336 336 338 339 338 337 336 336 336 337 339 342 347 351 357 357 358 359 360 360 360 361 362 363 362 361 359
299 298 297 294 293 294 293 289 287 294 291 301 305 304 304 307 303 303 290 291 304 308 307 307 305 306 307 309 308 307 304 300 303 310 311 312 312 313 313 314 314 315 316 318 319 321 322 324 325 325 325 326 329 329 330 329 329 330 332 334 336 337 336 336 335 336 337 336 337 338 340 345 348 352 356 356 357 361 361 361 361 361 361 361 361 360
295 296 296 292 293 293 291 291 294 295 303 305 304 305 305 305 302 294 288 299 306 307 309 308 308 307 308 307 307 304 308 309 310 311 312 311 311 312 314 314 315 315 315 315 317 321 320 321 321 322 324 326 329 328 328 329 327 328 330 331 332 334 334 336 336 336 335 335 336 338 340 345 348 349 352 357 358 355 354 358 360 361 362 361 361 362
296 296 296 296 293 292 294 291 291 296 302 306 307 306 307 301 290 291 303 309 309 307 308 307 306 307 307 306 306 307 308 309 310 310 310 311 311 312 312 313 313 314 316 317 318 319 318 319 321 322 322 326 327 327 327 327 327 327 328 329 330 332 334 335 336 337 337 337 337 338 339 341 345 349 351 355 355 351 352 352 352 350 355 357 361 362
295 292 292 292 295 295 295 292 290 285 301 306 307 304 305 295 298 305 307 309 308 308 307 308 308 307 308 306 307 308 308 307 307 308 308 309 310 311 312 312 313 313 313 315 317 317 316 317 319 320 320 321 324 326 327 327 327 326 327 327 331 332 333 334 336 337 337 337 338 340 340 342 344 345 348 350 352 353 353 355 354 353 353 351 352 354
301 291 292 295 298 290 290 288 289 298 304 308 305 299 304 303 309 309 306 306 308 307 307 307 308 309 308 307 306 306 307 307 308 309 309 309 310 311 312 313 314 314 314 314 315 316 316 317 318 318 321 321 323 325 327 327 326 326 327 328 330 330 331 332 332 334 336 337 338 340 341 341 342 344 347 348 351 351 352 354 356 355 353 351 349 350
302 297 300 294 301 295 294 297 303 305 307 309 308 307 310 311 312 312 308 306 305 306 309 307 306 308 308 308 307 307 306 307 307 307 307 308 309 310 311 312 313 314 314 314 314 317 316 315 317 317 319 321 323 324 326 327 326 327 326 329 331 331 330 330 330 331 333 335 337 338 339 340 342 343 344 345 347 349 351 354 353 351 355 355 351 352
306 305 307 301 298 304 305 305 307 305 306 307 308 311 310 311 311 308 307 305 307 307 308 307 308 307 307 308 306 306 306 306 306 306 307 308 309 310 312 312 312 314 314 315 316 317 317 317 317 317 318 320 322 323 325 327 327 326 327 329 331 331 330 329 329 329 331 333 335 336 338 337 338 339 341 343 344 343 346 351 352 352 354 356 355 355
303 305 302 297 302 297 292 305 303 303 305 306 307 311 312 311 310 309 308 307 307 309 308 308 308 308 307 308 307 306 306 307 306 307 308 309 309 310 310 311 311 312 312 313 315 316 316 317 316 317 318 319 321 322 322 324 326 328 329 329 328 328 329 328 328 328 330 332 332 334 337 338 337 337 339 341 340 341 344 346 349 352 356 356 352 349
299 307 300 299 300 298 297 304 306 308 308 308 307 307 307 309 310 311 309 310 310 310 309 309 309 307 308 307 308 307 307 307 306 307 307 308 308 309 309 310 310 311 313 314 314 316 316 316 317 317 318 319 321 322 323 324 327 329 328 328 329 329 330 329 328 326 326 328 332 334 336 336 336 336 337 337 338 338 339 340 342 347 351 351 354 354
304 304 296 301 298 300 304 305 306 307 305 306 307 308 309 309 310 311 310 309 310 309 309 309 309 308 307 307 308 308 307 307 308 308 308 308 309 309 309 310 310 311 312 313 314 316 315 316 317 317 318 318 320 322 323 323 325 327 328 328 328 329 328 327 327 328 327 328 330 332 335 334 335 335 334 336 339 338 338 337 337 338 340 343 348 352
302 298 302 301 297 297 297 301 305 298 299 303 306 307 308 309 310 310 310 309 309 309 309 308 308 309 308 308 308 307 306 307 308 309 308 308 308 309 310 310 310 310 311 313 314 315 315 317 317 317 318 319 321 323 323 324 325 327 326 327 328 328 326 326 326 326 327 327 328 331 331 332 332 334 335 334 335 336 336 334 322 329 338 340 334 327
299 301 300 297 296 296 303 305 306 306 305 305 307 308 309 310 310 309 309 309 309 309 310 309 308 308 308 309 309 308 308 308 309 309 308 307 308 309 310 310 309 310 310 311 311 312 313 314 316 317 318 319 321 322 323 325 325 326 327 327 328 327 325 325 323 323 325 326 326 326 327 328 330 332 333 334 335 334 334 334 337 316 311 315 323 321
Wind_Speed
10 9 11 10 9 11 11 10 5 4 1 3 5 6 4 3 8 7 7 8 5 5 6 5 6 3 5 7 9 10 11 11 10 11 10 10 10 11 11 12 12 13 13 13 14 14 14 14 13 12 11 11 11 10 11 12 12 11 11 10 10 9 9 8 8 8 7 7 6 6 7 6 6 5 4 4 4 4 4 4 3 4 4 4 4 4
11 9 11 11 9 12 9 7 3 4 4 5 7 7 7 9 8 5 8 7 7 2 3 4 5 6 5 7 8 10 11 12 13 13 12 11 12 11 12 12 12 12 10 13 13 14 14 13 14 12 11 12 13 11 12 13 12 12 12 11 10 9 9 9 8 7 7 7 6 6 6 6 6 6 5 5 4 4 5 4 3 3 4 4 4 4
10 11 10 11 6 7 6 7 5 5 7 6 6 8 5 7 9 7 8 5 7 8 1 2 6 5 6 8 9 11 12 10 12 13 14 15 15 13 12 12 12 12 12 14 14 15 14 15 15 12 12 12 13 13 13 13 12 12 11 10 11 9 9 9 9 8 7 7 6 6 5 5 5 5 5 4 3 2 3 4 3 3 4 4 4 5
11 11 11 9 8 8 8 6 7 6 5 7 6 7 9 7 9 9 7 8 7 5 5 5 6 5 6 4 8 10 11 9 11 13 14 14 15 14 14 13 12 13 13 14 15 16 15 15 14 13 12 12 12 12 12 12 12 11 10 11 11 10 10 9 9 8 8 7 6 5 4 4 3 4 4 3 3 3 2 3 4 4 4 4 4 5
8 8 10 12 9 10 9 8 8 8 9 7 6 7 10 6 6 6 8 5 3 5 3 7 7 6 7 7 7 9 10 9 9 10 10 10 10 11 11 12 13 14 14 14 15 15 16 16 15 14 13 12 12 12 12 13 12 9 12 12 12 10 10 9 10 9 8 7 7 6 5 4 4 2 4 5 5 4 4 3 4 5 5 4 3 4
4 5 10 11 11 9 9 9 10 9 9 10 9 6 1 2 4 5 4 6 9 7 7 6 6 7 6 5 3 5 8 7 5 6 7 8 9 10 12 13 13 13 14 14 15 15 16 16 15 15 14 14 13 13 12 12 13 12 12 12 12 10 10 10 11 10 9 8 7 8 7 7 6 6 6 6 6 6 5 5 5 6 5 5 5 4
7 9 11 12 12 11 9 8 11 10 8 9 10 12 6 4 4 3 4 4 6 7 7 5 7 7 4 8 9 3 3 3 4 3 4 6 7 9 10 10 12 13 13 14 14 15 16 16 16 16 15 15 14 13 12 12 13 13 12 12 13 10 10 10 11 12 9 9 8 9 8 8 7 7 6 5 5 5 5 3 5 4 5 5 5 5
7 11 11 11 11 11 9 9 8 10 8 7 8 6 7 8 8 7 6 6 3 6 4 3 6 4 10 5 7 3 5 6 3 3 4 5 9 9 10 11 11 13 13 13 15 16 15 16 16 17 17 15 15 14 13 13 13 14 12 13 13 10 10 10 11 12 10 9 9 9 9 7 7 7 6 7 5 4 4 4 5 5 5 5 4 4
11 9 9 12 11 9 9 8 8 11 10 0 5 4 6 8 9 8 7 6 3 2 7 7 6 7 4 7 6 5 6 7 7 4 0 5 7 9 11 11 13 13 12 12 13 15 16 16 16 16 16 16 16 15 14 13 13 13 13 13 13 12 11 10 12 12 12 10 9 9 9 8 7 6 6 6 6 5 5 5 4 4 5 5 5 4
6 3 12 8 8 8 9 8 6 10 11 5 2 3 2 3 6 8 7 7 4 6 8 7 9 8 6 6 5 6 7 6 6 5 6 7 4 7 9 12 12 13 13 14 13 13 16 16 17 17 16 17 16 15 14 14 13 13 13 14 14 13 11 11 13 12 12 12 10 9 10 10 8 7 6 5 6 5 5 6 6 5 4 5 5 5
8 6 6 3 4 7 3 4 4 8 9 5 6 6 6 7 7 6 6 5 5 9 10 9 9 10 5 3 6 4 7 7 6 5 7 6 6 5 8 10 11 12 13 14 15 17 16 16 16 16 17 16 16 14 15 15 14 14 14 14 15 15 11 12 13 13 13 12 11 10 11 11 10 9 8 6 6 6 6 6 6 6 5 5 5 5
9 8 7 4 4 1 2 5 6 6 5 7 7 8 8 7 4 6 7 6 8 9 11 9 9 7 10 7 7 7 6 7 7 8 9 9 8 6 6 6 11 11 12 13 14 14 15 15 16 15 16 16 16 15 15 14 14 14 13 14 15 14 13 12 13 13 12 12 12 11 12 12 11 10 8 8 8 7 7 7 6 5 5 5 5 4
9 5 7 7 3 3 9 8 9 9 8 10 8 10 10 8 8 9 9 11 11 8 9 8 7 7 3 7 8 8 8 7 8 8 9 10 8 8 6 6 5 10 11 12 12 11 13 14 15 17 16 16 16 15 16 15 14 14 14 15 15 15 15 13 13 13 13 12 12 12 12 12 10 10 9 8 8 7 7 7 7 6 6 6 5 5
7 6 6 6 5 3 4 10 10 10 10 12 10 10 11 10 10 10 11 8 9 10 5 8 9 5 10 7 2 8 8 8 9 8 9 9 9 8 7 4 5 7 10 11 12 14 14 14 15 16 16 16 15 17 16 16 15 13 13 15 15 15 15 14 13 14 14 13 12 12 12 11 10 11 10 9 8 8 7 7 7 8 7 7 7 7
8 8 6 4 4 5 1 5 5 4 14 10 9 10 9 6 8 10 9 13 12 9 9 5 7 7 11 6 2 9 8 8 8 10 10 10 10 9 8 7 8 4 9 11 11 13 14 14 16 15 16 16 16 17 17 16 15 14 14 15 16 15 15 15 14 13 14 13 13 12 11 11 10 10 10 9 8 8 8 8 8 7 7 7 7 6
2 6 7 6 6 3 4 4 4 4 7 10 9 6 9 9 4 9 7 10 10 9 10 9 3 4 7 9 5 5 7 9 9 10 11 12 11 11 10 10 9 8 9 5 11 13 13 15 15 15 15 16 16 17 16 17 15 15 14 15 17 16 16 15 15 14 14 13 12 13 13 13 12 10 10 9 8 8 8 8 7 7 7 7 6 6
5 5 5 5 1 4 5 3 2 4 6 10 8 10 3 6 4 1 3 2 8 8 8 8 10 9 10 7 7 5 4 8 9 11 13 13 13 13 12 11 11 11 9 8 8 5 11 15 15 15 16 16 16 16 17 16 16 16 15 15 17 16 16 16 16 15 14 14 13 14 13 13 13 13 13 11 12 12 10 8 8 8 8 8 7 7
4 8 4 4 6 5 3 1 2 1 5 1 10 6 6 4 6 5 6 7 8 9 7 10 10 11 9 5 4 6 3 7 11 11 13 14 14 14 13 12 12 12 11 10 10 8 8 9 15 15 15 16 17 18 18 18 18 16 16 17 17 17 17 16 16 15 14 14 14 13 14 14 14 13 14 13 11 11 10 10 8 8 8 9 9 8
4 6 7 4 3 4 5 2 5 3 2 5 5 5 9 9 10 7 8 10 12 12 8 11 11 8 6 7 3 5 3 5 9 11 12 14 15 15 14 14 14 12 10 10 9 8 7 7 10 14 15 16 17 17 17 18 18 16 17 16 17 18 18 18 15 15 13 14 12 12 14 15 14 13 13 12 11 10 11 12 10 10 9 9 9 7
3 3 8 3 2 5 4 4 7 3 5 1 4 6 1 5 7 10 9 4 8 11 9 9 10 6 3 9 7 6 6 6 7 9 12 14 15 14 14 14 13 13 12 10 8 8 7 10 10 12 14 15 16 16 16 17 17 19 18 17 16 16 16 16 17 16 15 16 14 13 13 14 13 13 12 12 12 12 12 12 12 11 11 10 9 9
2 3 3 7 4 7 4 4 5 5 1 8 8 6 6 7 4 7 4 8 7 9 11 9 11 7 5 3 8 6 6 7 7 8 9 11 13 14 15 14 12 13 12 11 10 8 8 5 11 8 11 13 13 13 14 14 16 17 15 16 17 17 17 17 16 15 14 13 14 14 15 15 14 15 13 14 13 13 12 11 11 11 10 9 10 9
3 5 1 7 8 3 7 5 5 5 6 6 5 1 2 7 10 10 9 6 6 5 5 11 8 8 6 2 6 5 5 7 8 7 8 11 12 13 14 14 13 13 13 13 11 11 10 15 10 2 6 9 11 12 15 14 15 16 17 15 16 16 16 17 16 15 14 13 13 15 15 15 14 14 13 15 14 14 13 12 12 11 10 11 10 10
5 3 3 5 5 6 8 6 3 3 3 5 5 3 4 3 5 7 8 11 7 5 6 2 10 7 4 5 5 6 6 7 8 8 9 10 11 13 13 13 14 15 15 14 14 13 13 13 13 13 15 14 6 12 11 13 13 13 15 15 14 15 16 16 16 15 13 13 13 15 15 14 14 14 15 16 14 15 15 14 13 12 12 12 11 11
6 2 5 6 6 7 5 2 1 2 2 6 3 4 3 1 3 6 6 7 7 7 8 6 4 8 6 5 5 6 6 7 7 9 9 9 9 12 13 14 13 14 15 15 14 14 14 14 14 14 14 11 13 9 8 11 10 12 12 14 14 16 16 15 14 14 14 14 15 15 15 14 14 15 15 16 14 15 15 14 13 12 13 13 12 11
4 2 5 5 5 6 7 6 4 1 4 2 3 4 5 3 2 3 6 3 8 3 6 8 8 8 8 5 6 6 6 8 8 9 8 9 10 10 11 12 12 13 14 16 15 16 16 18 18 15 11 11 12 11 14 9 10 11 12 12 13 14 14 14 12 13 14 15 15 15 15 15 15 15 16 16 15 16 16 15 14 12 14 13 13 13
4 3 3 6 8 9 9 9 7 8 5 4 4 3 5 5 4 3 9 7 7 2 5 8 7 10 10 9 7 6 6 8 9 9 9 10 10 10 10 11 11 12 13 14 15 16 16 14 15 15 14 12 10 12 11 12 12 9 10 11 12 12 13 13 14 14 14 14 14 14 15 15 15 16 16 16 15 16 16 15 14 13 13 13 14 14
1 2 3 5 6 5 7 7 4 3 4 4 4 3 5 4 4 4 3 5 7 6 5 8 9 13 13 10 7 7 6 7 7 8 9 9 10 10 10 10 11 12 12 14 14 13 13 15 15 14 16 14 11 10 10 11 11 14 8 11 11 11 11 12 13 14 14 14 14 13 14 15 15 14 15 15 15 14 14 15 15 15 14 13 14 14
2 3 3 4 6 6 6 6 6 5 3 4 1 3 3 4 4 4 3 0 6 4 6 6 8 11 10 9 7 7 6 6 7 7 8 7 9 8 9 9 11 13 14 14 15 15 15 13 13 14 14 15 15 12 10 10 12 11 12 9 8 11 10 10 12 13 14 13 12 12 14 15 15 15 14 13 13 13 14 14 14 14 13 12 13 14
2 2 3 1 5 4 4 6 5 3 3 2 2 1 2 2 3 3 4 4 3 4 4 11 5 10 8 7 7 5 4 5 6 7 7 7 8 8 9 11 12 12 13 14 14 14 15 14 13 13 13 14 15 16 15 13 12 12 12 11 13 8 11 10 11 12 13 12 13 13 13 13 13 13 13 13 13 13 13 13 13 13 12 12 12 12
3 3 2 2 5 4 4 3 3 2 1 2 1 1 0 0 1 2 3 3 3 6 7 9 8 8 6 6 5 5 3 4 5 4 5 7 9 9 9 10 12 12 13 14 14 14 14 14 14 14 14 13 14 15 15 13 12 12 11 12 12 11 9 9 11 11 12 12 13 13 13 12 11 11 12 13 13 13 13 13 13 13 13 13 13 12
6 4 2 4 4 4 3 3 2 1 1 3 2 2 3 3 3 2 2 3 3 4 6 8 8 7 6 3 5 5 3 3 3 3 5 6 8 9 9 10 11 12 12 12 13 14 13 14 14 14 15 14 14 14 13 12 11 9 9 9 10 10 10 8 10 10 11 13 12 12 11 11 11 11 12 12 13 12 13 13 12 12 12 12 12 12
5 4 3 3 5 5 4 2 3 3 3 5 4 5 5 7 6 6 5 3 4 5 5 6 6 6 7 4 5 3 3 2 3 3 4 5 7 8 9 10 10 10 11 12 13 13 14 14 14 14 14 15 15 14 13 12 12 11 10 8 9 9 10 9 9 10 11 12 12 11 12 11 11 12 13 12 12 12 12 12 12 12 12 12 13 12
1 3 5 5 5 3 5 3 1 4 6 8 10 8 6 3 2 4 3 2 1 2 5 6 2 5 7 3 2 3 2 3 2 3 3 4 6 7 8 9 9 10 10 11 12 12 13 13 13 13 13 12 13 13 13 12 12 12 11 11 9 10 10 10 9 10 10 11 13 12 12 12 12 13 13 13 12 12 11 12 12 13 13 14 13 12
1 3 1 1 5 3 3 1 4 5 8 3 9 7 3 4 6 6 6 6 3 4 2 6 6 4 4 4 2 2 1 3 2 3 2 4 5 6 7 8 9 9 9 10 10 12 12 11 11 12 13 12 12 12 12 11 11 11 11 9 9 9 10 10 9 9 10 10 11 12 12 12 13 13 13 12 12 11 12 12 13 14 13 13 12 12
2 2 1 1 4 3 4 3 5 7 3 7 5 6 2 1 2 2 4 3 3 3 1 3 3 5 2 1 1 0 1 3 1 2 1 4 5 6 7 7 8 9 10 9 11 11 11 12 12 12 13 12 12 12 12 11 11 11 10 9 8 8 9 10 10 10 10 10 11 11 11 13 12 13 12 12 12 12 13 13 13 14 13 13 13 14
2 4 2 4 3 0 3 5 4 2 7 4 5 4 4 2 1 3 5 6 6 4 4 4 5 5 3 1 2 1 2 4 3 3 4 2 4 5 8 8 9 10 10 10 10 10 10 11 12 13 12 11 11 11 11 12 12 12 11 9 8 6 6 8 9 9 10 10 11 10 12 12 13 12 12 12 12 13 14 14 14 14 13 13 13 13
4 2 4 3 2 3 4 6 3 6 5 5 5 7 7 4 6 6 4 9 8 5 3 2 4 3 3 2 2 4 5 6 6 4 4 3 4 6 7 8 9 9 10 10 10 10 9 10 11 11 11 11 11 12 12 12 12 12 11 9 8 7 6 5 7 9 9 9 11 12 12 11 13 13 13 13 13 14 14 14 15 14 12 13 14 14
3 6 1 5 3 5 5 5 5 5 7 8 6 6 3 4 5 4 4 4 7 5 3 4 5 5 3 2 1 3 5 7 6 5 6 1 4 6 6 7 8 9 10 10 10 10 10 10 10 10 10 10 11 11 10 12 12 12 11 10 9 8 6 6 6 6 8 8 10 12 12 12 11 13 14 13 15 15 15 14 13 13 12 14 14 15
3 4 3 6 4 4 6 6 4 5 2 7 8 6 6 3 3 0 3 7 9 7 6 5 5 5 2 2 1 3 5 5 5 5 5 3 6 8 9 8 8 9 10 10 10 11 11 11 10 10 10 10 11 11 11 11 12 12 12 11 11 10 9 8 8 8 7 7 9 10 11 11 12 12 12 14 15 14 15 14 13 12 12 13 13 14
6 6 6 7 7 6 6 6 5 4 0 6 9 7 7 3 2 6 7 3 8 6 6 4 3 3 2 1 2 3 3 5 5 4 9 9 10 9 9 10 9 10 10 11 10 10 11 11 10 10 11 11 10 10 11 11 11 11 12 12 11 11 10 10 10 8 7 7 7 8 9 10 10 11 12 11 13 11 13 13 12 13 13 13 12 12
7 6 6 8 7 6 7 6 6 3 5 8 9 9 7 4 4 6 6 7 7 7 5 4 1 1 1 3 3 4 1 4 7 10 11 11 11 10 9 9 10 10 11 11 11 11 10 10 10 10 11 10 9 9 9 10 10 10 11 11 11 11 12 11 11 10 9 7 8 8 8 9 10 11 12 11 6 8 11 13 12 11 12 13 12 13
6 6 6 7 8 7 6 8 6 4 5 9 10 9 9 6 6 6 7 8 7 6 4 1 2 2 3 4 4 4 5 5 7 8 10 10 10 11 12 12 12 11 10 11 11 11 11 10 10 11 11 10 10 10 10 10 10 11 10 10 11 13 12 13 13 10 10 9 9 9 8 8 9 10 9 8 6 5 6 7 7 12 14 12 12 13
5 6 6 8 6 5 4 7 3 5 5 7 12 9 8 9 2 7 7 5 4 3 1 3 3 2 2 4 4 5 6 7 7 8 9 10 11 11 11 12 12 12 12 11 11 11 11 11 11 11 12 10 10 9 10 11 12 11 11 11 12 11 12 12 13 13 11 10 8 7 8 7 8 10 8 8 7 8 9 7 8 10 9 10 14 16
2 5 5 5 5 4 6 6 3 3 7 10 12 5 9 7 5 4 2 4 5 1 3 2 2 1 2 4 5 6 7 8 8 7 7 9 10 11 11 11 12 13 13 12 11 12 12 11 12 12 11 10 10 9 9 10 11 11 12 12 10 10 10 11 12 12 12 11 9 8 7 7 7 7 8 10 9 7 7 8 8 8 8 8 10 12
7 8 3 4 5 7 4 3 4 4 4 7 9 3 1 8 5 2 1 2 3 2 2 3 2 2 3 4 5 7 8 7 8 7 8 8 9 10 11 12 12 13 13 13 13 12 12 12 13 13 14 12 11 9 9 8 10 12 13 11 10 10 10 10 12 12 12 11 11 9 8 7 7 7 7 9 10 9 8 7 8 8 7 6 11 12
2 4 3 5 7 7 10 10 3 2 3 6 7 1 5 7 5 2 3 3 2 3 2 3 2 3 3 3 6 6 7 8 9 9 8 8 9 9 10 11 12 12 13 13 13 12 13 13 13 14 14 14 12 11 9 9 8 12 12 11 10 9 9 10 10 11 12 12 11 10 9 7 7 8 8 7 7 9 10 10 10 8 8 8 7 9
8 5 5 6 2 1 4 5 11 12 8 7 8 7 4 5 5 4 4 5 3 3 3 3 3 3 4 5 6 7 10 10 10 10 9 8 8 9 10 11 12 13 14 14 13 14 13 13 12 13 14 14 13 11 11 10 9 9 10 11 11 10 8 8 9 10 11 12 12 11 9 8 5 6 7 6 4 6 9 10 10 9 7 7 9 11
7 9 8 10 10 9 9 1 1 1 4 7 8 9 10 9 7 7 5 4 3 3 4 4 4 5 5 6 5 7 9 10 11 10 9 9 8 8 9 10 11 12 14 15 16 15 15 15 14 14 14 13 12 11 11 10 10 9 9 11 11 10 8 8 8 9 10 13 12 11 9 8 8 8 7 7 6 5 6 8 10 10 9 8 8 9
4 9 6 5 9 10 12 13 8 4 5 6 8 10 9 8 9 9 8 7 6 6 7 6 5 5 5 6 6 8 8 9 10 10 11 10 10 9 9 11 12 13 14 15 15 15 15 15 15 15 15 14 13 12 12 12 11 10 10 10 10 10 10 8 9 9 10 10 10 10 10 9 8 6 7 8 8 5 5 6 8 10 11 11 8 8
5 9 7 7 11 11 10 7 7 10 9 9 14 13 11 11 9 8 8 8 8 8 7 7 6 6 6 6 7 7 9 8 9 10 11 11 11 11 11 12 13 13 14 14 13 15 16 16 17 17 16 14 13 13 12 12 11 10 10 9 9 10 10 11 9 9 9 8 9 10 10 10 9 7 6 8 9 10 8 6 8 9 10 12 14 17
9 10 9 11 11 12 10 9 9 9 11 8 7 3 7 8 10 10 10 10 9 8 7 7 7 6 6 7 6 7 8 9 10 11 12 11 11 11 12 13 14 13 14 14 15 16 16 17 17 18 18 15 13 13 13 13 12 11 10 9 8 9 11 10 10 9 8 8 8 8 10 11 11 9 7 7 8 9 11 11 7 9 12 13 15 19
Wind_Direction
176 196 191 198 199 193 194 206 212 122 327 114 173 172 172 144 100 104 104 128 171 226 218 201 210 200 165 164 159 169 170 182 185 183 185 192 189 187 190 187 184 181 185 179 180 183 182 181 176 179 173 180 178 179 177 177 177 176 174 171 173 177 185 173 179 180 182 179 179 185 188 180 175 187 175 186 181 168 144 120 120 139 150 156 165 171
200 210 201 201 200 185 178 189 134 179 189 204 188 202 158 223 116 96 120 140 157 173 190 211 211 213 183 171 171 172 180 189 189 185 187 195 195 194 192 191 187 178 181 171 174 183 182 185 179 178 176 180 180 181 180 184 182 180 180 176 171 176 182 186 185 181 187 180 183 182 187 184 172 173 184 181 189 180 132 136 144 157 139 157 166 167
199 216 188 194 169 151 165 180 191 201 187 193 213 192 198 176 96 125 122 155 160 186 166 165 222 176 182 172 174 190 196 196 195 188 193 190 195 192 190 194 186 181 182 174 177 180 183 184 181 182 179 181 186 181 184 186 184 180 183 178 174 177 181 186 187 184 185 182 184 191 180 199 166 175 185 175 166 158 146 143 146 141 147 165 165 165
192 213 185 155 163 165 165 178 189 197 220 200 201 201 203 144 185 153 118 139 152 248 109 252 249 146 151 162 180 194 202 198 199 190 192 193 193 186 188 189 189 186 182 181 179 182 183 183 183 183 181 182 184 181 185 186 187 184 184 180 178 176 181 181 184 188 181 180 172 186 183 195 191 175 173 165 166 181 187 161 150 155 159 174 169 165
200 182 148 173 170 191 179 183 197 207 204 212 230 219 199 165 205 360 126 156 163 187 137 195 237 194 168 177 187 192 201 206 196 197 201 186 193 187 188 192 192 189 183 185 183 184 183 183 185 184 183 181 183 184 185 188 186 189 185 182 180 178 179 180 178 181 176 172 174 180 179 191 194 182 190 193 191 191 182 196 170 163 167 167 175 159
167 122 149 171 181 189 198 188 208 214 216 207 211 241 248 124 192 151 122 200 202 169 181 211 223 183 120 169 180 134 186 204 190 204 202 189 187 190 197 194 192 197 187 189 187 186 185 185 184 184 184 187 186 187 186 189 187 189 183 181 181 179 179 180 176 178 175 178 183 184 186 191 192 193 193 199 196 184 181 195 159 150 174 167 171 166
152 151 180 175 181 187 201 215 193 224 228 214 197 203 218 226 221 213 182 219 211 218 132 234 258 149 163 65 8 25 102 157 145 224 208 188 192 199 207 199 196 198 192 193 191 188 187 186 187 185 188 190 190 189 187 189 188 187 183 183 182 180 180 179 174 177 177 182 191 193 196 195 194 194 194 202 205 189 179 176 152 149 166 170 182 168
131 160 177 184 183 190 196 209 182 204 227 218 94 179 204 215 224 217 228 234 287 23 114 226 259 223 145 79 59 334 68 96 119 160 219 211 196 201 206 206 201 200 200 194 195 192 193 188 189 189 187 192 193 188 188 189 188 183 183 181 183 183 182 179 174 178 181 188 190 193 202 202 203 202 191 190 202 191 183 171 173 162 168 166 195 171
177 161 176 176 195 198 205 210 167 198 224 226 113 170 200 215 218 222 223 221 258 232 219 185 203 236 142 107 82 56 99 66 63 22 196 222 225 212 208 208 203 203 194 207 201 196 195 190 192 191 190 192 194 190 189 190 186 181 182 181 182 184 182 181 179 180 183 191 191 193 196 203 207 209 198 189 192 191 190 189 177 178 170 165 178 190
172 227 184 183 188 193 202 202 170 190 216 163 80 167 182 174 214 219 216 229 164 231 231 195 180 232 140 104 116 105 37 30 27 4 4 1 309 224 218 209 209 202 190 199 210 212 197 195 193 192 193 194 195 192 189 189 186 181 180 180 181 183 183 182 182 184 185 189 190 192 196 199 201 203 201 198 186 193 189 200 188 185 189 183 176 179
102 76 78 262 224 11 46 107 219 197 226 54 171 182 163 182 185 200 235 211 209 226 227 207 190 243 174 42 60 36 26 10 355 10 359 343 344 322 220 218 213 208 200 196 198 203 202 198 197 195 197 195 195 193 188 189 187 184 181 180 183 183 182 182 185 186 188 188 191 195 196 197 199 200 199 196 189 192 192 204 198 193 190 199 185 184
136 150 180 95 1 262 274 188 199 231 219 199 187 194 167 161 161 189 197 209 220 224 218 198 211 184 245 128 87 58 50 23 2 10 0 354 349 334 330 236 214 213 208 204 204 200 196 195 198 198 200 197 196 195 190 191 187 187 181 179 182 183 182 184 185 189 191 193 194 198 196 198 200 198 202 203 200 195 200 202 204 198 193 192 187 199
164 130 102 114 77 348 190 216 173 188 193 216 185 190 185 163 185 190 188 198 216 223 193 181 193 197 91 75 81 72 36 33 23 14 6 3 354 353 320 319 256 214 214 205 203 209 199 197 197 199 199 198 195 196 194 194 191 188 184 180 181 183 184 182 186 189 192 195 198 198 198 199 200 202 204 205 206 202 202 202 204 196 197 190 192 194
116 131 166 109 177 39 262 217 154 195 190 200 203 182 199 177 189 197 190 210 205 213 78 217 171 243 109 102 59 75 54 30 27 27 16 12 13 3 359 336 271 230 212 213 201 202 205 200 197 198 199 197 196 196 195 196 194 187 186 183 183 184 182 183 186 188 191 196 199 199 200 198 197 202 204 206 207 206 205 203 209 206 202 196 199 194
140 172 147 285 165 15 299 354 349 301 182 201 202 201 214 204 201 194 192 200 202 191 173 123 197 163 200 96 253 95 65 38 38 37 32 26 24 20 18 12 0 328 216 209 216 209 207 205 198 196 198 198 197 197 197 196 194 189 187 183 185 184 183 183 186 187 191 195 198 199 201 200 199 201 204 208 211 209 206 207 205 210 209 205 204 199
145 87 74 39 34 338 2 9 316 322 178 188 197 223 224 228 224 225 197 202 185 183 170 179 221 48 106 146 122 78 79 56 40 47 40 37 34 29 27 23 7 358 357 294 217 213 210 210 202 200 198 199 197 197 199 196 194 193 189 185 186 184 183 184 186 188 191 195 196 197 199 202 202 202 204 205 206 209 210 207 213 204 213 214 207 194
166 121 90 97 103 36 30 334 115 305 226 159 198 203 201 25 259 241 14 265 212 208 193 151 111 110 122 111 87 83 79 55 39 37 41 38 34 31 28 21 15 3 346 345 333 287 224 206 205 203 200 199 199 198 198 196 194 194 189 188 187 187 185 186 187 188 189 191 194 197 199 201 202 203 204 205 204 207 204 209 211 212 212 210 214 205
278 110 104 145 130 69 24 93 13 76 316 169 200 174 92 15 338 281 212 163 212 192 170 162 148 146 183 136 158 75 66 48 40 33 39 39 34 35 31 23 12 4 355 345 327 312 305 233 209 206 205 204 202 200 197 195 195 193 193 190 187 187 188 188 189 192 191 190 194 195 198 201 205 207 210 212 208 208 209 207 213 218 212 214 211 214
317 141 129 92 89 101 176 192 170 151 339 314 358 44 219 185 205 204 263 186 199 211 156 195 145 133 219 130 140 83 20 34 46 35 31 35 34 31 26 24 17 8 3 358 345 325 290 256 227 209 208 209 207 204 200 196 195 193 196 196 194 191 190 190 191 191 191 191 192 195 197 199 202 209 212 213 212 209 211 212 207 214 216 212 212 207
254 280 129 126 182 139 181 256 198 143 151 329 240 207 119 279 219 186 220 240 209 205 164 136 164 130 69 86 72 57 53 38 29 36 35 36 35 32 28 23 18 13 9 2 0 346 302 256 243 219 214 215 211 205 206 201 197 199 197 197 200 197 195 194 194 189 191 192 194 194 195 198 200 203 208 210 209 209 210 211 213 211 211 214 211 206
227 289 163 129 135 196 177 10 51 10 324 184 201 203 194 236 7 309 199 245 214 223 193 163 186 112 98 79 72 69 59 50 38 42 40 37 37 34 33 29 22 21 12 8 11 10 0 277 231 230 214 214 215 207 207 205 204 203 201 202 200 197 197 199 199 194 194 193 196 193 193 194 196 200 201 206 207 210 211 211 215 214 215 207 214 211
261 204 274 141 180 130 69 53 35 18 359 2 317 176 340 207 205 207 206 212 255 262 217 185 168 91 96 128 87 75 62 60 52 46 49 44 39 35 33 30 29 23 19 15 17 22 24 22 21 282 237 215 213 213 203 209 208 205 207 206 202 202 201 200 198 197 193 196 195 197 196 197 195 197 198 201 203 208 209 212 210 213 212 212 209 212
342 325 277 133 61 96 98 86 32 18 330 3 6 34 310 306 282 222 225 190 225 248 329 360 111 101 77 108 93 71 70 64 58 51 52 47 43 41 36 33 28 30 26 22 22 26 30 31 29 30 24 7 277 213 209 209 212 211 209 210 204 205 205 205 200 195 193 195 196 197 197 197 196 196 199 201 202 207 210 210 211 208 210 214 211 207
292 245 121 93 109 123 147 111 45 344 272 218 87 17 337 328 343 315 345 340 230 177 219 195 150 112 122 117 108 100 81 70 65 55 49 49 43 43 42 36 27 28 29 26 27 29 28 29 29 35 32 14 11 357 230 210 218 219 215 209 203 208 210 209 205 197 193 196 198 198 197 197 199 199 198 202 204 208 211 211 208 206 210 212 215 209
268 108 287 145 168 166 177 180 183 154 234 47 42 46 6 360 319 303 306 296 257 104 312 235 185 148 130 146 125 103 88 71 66 61 51 52 42 41 42 37 30 29 29 27 26 27 28 30 31 27 26 31 24 12 9 344 235 222 220 212 212 208 207 208 208 206 198 200 200 198 199 202 202 203 203 205 205 208 209 211 210 205 209 211 214 216
299 32 278 226 202 195 195 202 192 177 156 103 64 48 37 5 358 257 216 193 240 96 273 255 97 109 130 137 107 97 92 82 61 57 62 51 47 48 41 39 33 30 29 26 23 25 28 28 29 28 26 25 31 31 11 2 352 251 223 226 219 217 205 204 203 207 207 204 205 202 201 202 205 207 207 208 210 210 209 210 211 208 206 210 211 213
39 76 10 351 341 10 42 47 39 350 154 177 93 39 34 12 356 297 339 223 223 156 131 49 123 130 149 138 130 97 79 73 71 62 52 48 47 49 49 41 37 37 33 27 25 22 20 23 20 21 22 25 26 25 27 14 359 359 319 235 229 230 215 205 206 203 206 208 206 203 202 203 205 208 209 207 212 213 212 213 212 212 209 206 210 210
188 181 74 42 50 57 67 63 52 18 97 89 89 70 33 18 1 336 277 44 25 219 122 106 121 139 131 139 125 104 79 75 70 61 53 43 42 38 38 40 39 38 33 31 28 21 18 14 12 14 16 21 21 22 26 22 14 358 358 337 246 226 231 211 208 207 204 204 212 207 203 205 206 208 207 209 209 213 215 214 214 213 213 209 208 213
274 191 91 156 99 85 60 62 49 65 58 62 47 19 40 18 20 52 68 37 354 329 104 134 129 132 136 119 107 89 56 78 73 46 52 49 36 41 39 34 34 34 32 29 25 27 21 14 8 6 8 12 14 18 20 21 14 6 0 2 348 283 234 227 212 213 209 203 207 210 208 206 207 208 204 206 205 210 214 215 213 213 213 211 214 214
282 79 100 132 127 111 100 82 63 44 84 211 172 163 39 29 74 77 93 94 58 101 114 129 128 122 110 109 119 95 84 52 62 51 49 43 39 32 34 36 31 30 29 26 22 21 20 18 14 3 1 6 10 10 15 14 12 8 7 359 344 343 311 248 232 221 223 214 208 210 208 205 207 206 206 203 204 205 208 212 213 213 213 213 215 217
294 110 204 173 178 141 117 163 185 148 283 230 186 211 198 189 167 169 131 120 122 118 97 131 133 133 117 129 116 131 111 94 29 48 43 34 31 30 30 33 31 26 25 23 22 19 14 19 15 7 3 1 4 7 7 1 1 2 9 3 353 338 323 291 250 229 233 231 219 212 208 201 201 204 205 205 205 204 206 209 211 213 213 215 215 217
283 121 201 225 232 159 158 186 196 229 226 245 219 203 193 184 195 180 199 151 223 148 153 149 178 149 131 152 146 148 170 115 93 33 36 24 17 30 26 28 29 25 21 20 19 17 16 11 15 12 4 357 357 0 1 356 350 353 1 358 357 347 337 309 294 273 231 232 232 219 210 207 202 202 204 205 206 206 206 207 208 211 213 215 215 213
18 154 186 192 232 142 116 219 261 240 228 222 214 189 175 169 66 111 79 141 323 65 184 210 104 82 122 110 197 131 322 110 66 64 6 17 15 14 25 28 24 21 22 19 14 16 17 10 8 8 6 359 355 351 355 351 346 344 346 350 349 347 343 343 314 299 286 244 238 233 218 211 208 205 206 206 207 207 206 207 209 212 215 217 217 216
211 246 230 269 261 129 145 202 243 234 223 181 72 99 164 165 182 192 176 164 149 227 9 11 97 116 147 175 184 65 18 52 339 73 64 14 353 3 10 21 18 19 18 17 10 14 11 7 5 4 5 1 355 351 350 348 346 340 336 342 346 348 347 344 350 330 299 283 250 238 232 222 213 212 211 209 207 206 209 211 214 216 217 221 220 221
181 226 241 208 256 166 148 198 214 225 186 87 126 111 155 113 187 269 101 170 164 205 136 142 118 112 104 20 52 64 21 305 286 227 40 41 356 347 0 7 11 10 11 12 8 9 8 1 1 0 1 360 355 354 350 348 350 339 342 346 351 356 354 351 353 351 347 329 288 253 241 236 225 219 216 212 208 207 210 212 217 219 219 221 220 219
186 219 144 220 251 134 219 203 221 158 78 141 121 149 110 218 149 208 208 196 190 189 157 202 148 136 163 232 330 348 287 312 279 244 246 67 23 6 357 357 3 2 0 6 359 3 2 1 359 357 356 351 351 355 355 348 345 347 344 339 351 357 12 359 355 355 353 338 342 305 253 241 237 227 219 215 212 210 210 212 215 217 218 224 227 225
273 293 245 208 191 240 225 215 218 84 173 146 178 190 184 198 189 220 250 173 171 156 186 174 138 167 162 226 255 301 316 297 267 197 191 89 45 24 0 351 357 351 353 353 354 353 359 356 353 355 348 352 353 353 350 346 344 347 340 344 351 349 359 11 11 356 348 351 336 338 329 274 247 239 229 220 217 216 214 213 214 217 218 222 226 228
235 253 101 259 187 252 263 235 231 215 240 187 152 117 114 73 52 55 283 155 143 139 171 155 182 150 197 182 232 314 302 271 253 206 154 90 15 14 360 349 342 344 347 346 343 341 353 351 346 344 345 346 356 353 348 343 344 344 338 341 345 345 346 1 10 5 352 347 343 330 322 323 296 251 236 233 227 221 220 218 217 219 215 219 223 227
216 238 267 248 230 198 237 251 226 234 167 77 127 129 132 115 127 82 241 236 149 162 165 172 159 139 181 163 110 267 269 258 253 121 93 354 349 350 340 339 332 337 333 337 335 340 345 343 337 332 335 344 354 348 345 344 344 345 341 337 338 341 345 349 357 359 349 344 338 324 321 314 315 311 266 240 234 231 227 221 221 222 217 220 223 230
199 204 210 225 242 229 246 233 240 244 203 143 134 143 133 132 142 243 253 184 137 152 152 159 177 152 165 118 293 269 258 260 272 18 9 347 339 328 324 321 325 322 322 321 325 339 333 327 324 329 334 340 348 337 343 343 344 344 341 336 330 334 344 344 343 343 336 337 328 321 317 316 317 307 307 287 269 261 244 235 233 226 221 223 227 229
200 213 213 235 229 209 217 254 258 225 132 140 152 145 143 146 235 241 241 105 146 138 154 144 182 140 288 287 288 283 316 333 328 324 323 324 311 312 310 312 309 311 311 315 322 334 316 319 323 328 326 332 327 331 343 344 342 343 340 335 329 336 338 335 335 335 341 325 320 319 315 321 312 308 305 307 319 308 316 303 271 245 234 233 234 233
217 220 222 238 243 241 219 235 241 266 83 144 152 160 146 184 212 238 80 122 131 144 140 211 281 293 298 295 297 297 316 312 300 300 301 302 308 305 304 303 305 306 307 307 315 309 310 310 315 315 317 318 318 327 331 332 340 333 336 331 332 331 332 329 327 332 333 327 323 322 325 326 321 311 304 311 352 312 245 233 272 293 298 286 259 243
197 206 217 213 229 245 258 248 248 250 130 168 146 158 175 227 57 93 137 123 127 115 164 199 241 281 276 284 286 294 296 301 305 309 306 303 303 302 302 305 303 303 305 306 300 303 309 310 311 308 308 312 321 332 324 322 322 325 329 329 333 331 328 327 324 325 324 324 309 314 319 323 324 325 325 315 305 288 286 273 253 247 238 252 282 277
196 231 238 229 204 236 216 221 231 37 98 157 166 200 177 227 94 122 83 164 145 203 217 237 224 221 294 279 293 295 297 294 293 292 297 300 298 301 299 298 298 299 298 298 300 303 308 304 301 300 304 309 313 314 320 314 314 315 319 321 331 328 326 323 326 319 319 318 316 312 314 319 323 327 319 318 310 293 276 276 269 248 221 222 232 249
180 224 326 289 162 229 278 270 72 86 138 170 207 328 147 152 142 143 303 315 262 228 163 262 266 233 250 285 291 290 286 296 303 306 300 298 296 297 303 303 303 301 301 302 302 304 301 298 299 300 298 299 300 305 305 305 302 305 307 316 322 324 322 326 324 323 317 317 317 313 312 318 324 322 320 317 317 312 298 264 258 261 263 233 238 243
59 271 38 271 261 249 269 274 274 224 175 202 198 185 158 147 154 166 226 243 207 259 254 265 278 268 283 293 294 289 294 305 305 304 301 300 299 299 295 295 293 293 296 300 301 304 304 300 296 293 293 295 296 295 292 289 291 295 303 309 314 314 322 324 323 319 315 313 315 313 307 318 326 317 312 315 318 315 308 302 276 255 252 254 253 255
222 196 217 236 251 280 257 193 227 236 220 209 210 176 173 176 173 181 198 225 249 228 228 231 244 265 274 285 275 291 300 299 301 304 305 300 296 296 296 298 301 301 301 299 298 301 299 300 297 293 293 292 295 294 292 292 290 291 295 300 305 314 321 318 313 314 313 313 313 307 301 311 316 318 301 299 308 307 310 308 307 295 272 250 253 251
208 180 230 236 246 235 247 76 127 330 254 229 221 212 207 209 204 193 209 212 220 213 222 219 226 249 256 257 272 287 289 295 300 304 302 302 299 298 296 294 296 297 296 296 297 296 294 291 290 290 290 289 290 290 288 285 282 283 287 291 301 309 311 309 312 314 314 312 310 304 308 309 314 313 310 314 311 304 303 303 306 307 307 300 276 262
71 136 237 220 238 244 248 254 238 192 214 220 230 234 238 231 218 210 205 202 198 205 209 219 229 260 262 274 287 279 282 289 294 296 297 298 294 291 293 296 296 295 294 293 293 291 289 290 289 288 288 286 287 285 283 282 280 282 283 284 290 301 303 305 306 305 304 307 305 305 306 304 302 311 316 314 307 301 291 293 295 300 302 298 306 304
202 239 254 257 251 248 250 257 236 246 247 230 224 224 232 233 237 225 206 213 207 207 211 226 230 236 258 278 274 279 283 292 292 296 295 294 292 292 292 294 294 292 291 290 290 290 287 284 284 284 283 282 283 281 278 276 275 272 273 279 285 290 297 304 306 303 302 307 308 306 311 312 307 309 312 314 315 313 303 256 234 261 282 297 296 285
222 241 255 256 254 255 261 275 288 276 268 281 328 232 213 229 222 220 214 210 208 207 211 224 237 239 248 255 269 281 285 285 288 291 289 289 293 296 295 295 294 293 292 292 289 286 285 285 283 282 280 278 278 276 276 272 269 269 271 273 275 281 287 293 300 300 295 300 302 311 310 304 298 301 306 309 307 312 311 311 285 233 243 252 267 269